TimeEDT,TemperatureF,Dew PointF,Humidity,Sea Level PressureIn,VisibilityMPH,Wind Direction,Wind SpeedMPH,Gust SpeedMPH,PrecipitationIn,Events,Conditions,WindDirDegrees,DateUTC
12:56 AM,57.0,55.9,96,30.02,-9999.0,Calm,Calm,-,N/A,,Unknown,0,2013-07-09 04:56:00
1:56 AM,57.0,55.0,93,30.02,-9999.0,Calm,Calm,-,N/A,,Unknown,0,2013-07-09 05:56:00
2:56 AM,57.0,55.0,93,30.02,-9999.0,Calm,Calm,-,N/A,,Unknown,0,2013-07-09 06:56:00
3:56 AM,57.0,55.9,96,30.01,-9999.0,Calm,Calm,-,N/A,,Unknown,0,2013-07-09 07:56:00
4:56 AM,57.0,55.9,96,30.01,-9999.0,Calm,Calm,-,N/A,,Unknown,0,2013-07-09 08:56:00
5:56 AM,57.0,55.9,96,30.00,-9999.0,Calm,Calm,-,N/A,,Unknown,0,2013-07-09 09:56:00
6:56 AM,57.9,57.0,97,29.99,-9999.0,SSW,4.6,-,N/A,,Unknown,210,2013-07-09 10:56:00
7:56 AM,61.0,59.0,93,29.99,-9999.0,South,6.9,-,N/A,,Unknown,190,2013-07-09 11:56:00
8:56 AM,64.9,62.1,90,29.98,-9999.0,South,6.9,-,N/A,,Unknown,190,2013-07-09 12:56:00
9:56 AM,69.1,64.0,84,29.96,-9999.0,South,6.9,-,N/A,,Unknown,190,2013-07-09 13:56:00
10:56 AM,73.0,64.9,76,29.94,-9999.0,South,9.2,-,N/A,,Unknown,190,2013-07-09 14:56:00
11:56 AM,75.9,66.0,71,29.91,-9999.0,South,13.8,18.4,N/A,,Unknown,180,2013-07-09 15:56:00
12:56 PM,80.1,66.0,62,29.91,-9999.0,South,11.5,-,N/A,,Unknown,170,2013-07-09 16:56:00
1:56 PM,82.0,66.0,58,29.88,-9999.0,South,9.2,17.3,N/A,,Unknown,180,2013-07-09 17:56:00
2:56 PM,81.0,66.0,60,29.86,-9999.0,South,10.4,19.6,N/A,,Unknown,190,2013-07-09 18:56:00
3:56 PM,80.1,64.9,60,29.84,-9999.0,South,11.5,-,N/A,,Unknown,190,2013-07-09 19:56:00
4:56 PM,80.1,66.0,62,29.83,-9999.0,South,8.1,-,N/A,,Unknown,190,2013-07-09 20:56:00
5:56 PM,77.0,66.0,69,29.80,-9999.0,South,11.5,-,N/A,,Unknown,170,2013-07-09 21:56:00
6:56 PM,73.0,66.9,81,29.79,-9999.0,South,6.9,-,0.01,,Unknown,170,2013-07-09 22:56:00
7:56 PM,70.0,66.9,90,29.77,-9999.0,South,4.6,-,0.10,,Unknown,170,2013-07-09 23:56:00
8:56 PM,69.1,66.0,90,29.74,-9999.0,South,5.8,-,N/A,,Unknown,170,2013-07-10 00:56:00
9:56 PM,68.0,66.0,93,29.72,-9999.0,South,5.8,-,N/A,,Unknown,180,2013-07-10 01:56:00
10:56 PM,68.0,64.9,90,29.69,-9999.0,South,4.6,-,0.01,,Unknown,180,2013-07-10 02:56:00
11:56 PM,68.0,64.9,90,29.68,-9999.0,South,4.6,-,N/A,,Unknown,190,2013-07-10 03:56:00